Flag for Indonesia Weather past 2 weeks in Makassar, South Sulawesi, Indonesia

Now
72 °F

Passing clouds.


Feels Like: 65 °F
Forecast: 76 / 87 °F
Wind: 2 mph from North

Location: Ujung Pandang / Hasanuddin

Current Time: Jul 3, 2015 at 7:23:28 AM

Latest Report: Jul 3, 2015 at 7:00 AM


Visibility: N/A

Pressure: 29.92 "Hg

Humidity: 100%

Dew point: 72 °F

Location of MakassarLocation

Historic Weather in Makassar — Graph

°F

Makassar temperature yesterday

Maximum temperature yesterday: 93 °F (at 1:00 PM)
Minimum temperature yesterday: 72 °F (at 3:30 AM)
Average temperature yesterday: 81 °F

Past Weeks' High & Low Weather Summary

 TemperatureHumidityPressure
High93 °F (Jun 27, 2:00 PM)100% (Jun 18, 6:00 AM)30.01 "Hg (Jun 18, 6:00 AM)
Low70 °F (Jun 29, 5:00 AM)46% (Jun 29, 3:00 PM)29.77 "Hg (Jun 18, 2:00 PM)
Average81 °F83%29.89 "Hg
* Reported Jun 18 6:00 AM — Jul 3 6:00 AM, Makassar, Weather by CustomWeather, © 2015

Note: Actual official high and low records may vary slightly from our data, if they occured in-between our weather recording intervals... More about our weather records

Advertising

Makassar weather history for previous 24 hours

 ConditionsComfort  
Time TempWeatherWind HumidityBarometerVisibility
6:00 AM
Fri, Jul 3
70 °FPassing clouds.2 mph100%29.89 "Hg5 mi
5:00 AM70 °FPassing clouds.1 mph100%29.89 "Hg5 mi
4:30 AM72 °FPassing clouds.3 mph100%29.89 "Hg5 mi
4:00 AM72 °FPassing clouds.2 mph100%29.89 "Hg5 mi
3:30 AM73 °FPassing clouds.5 mph94%29.89 "Hg5 mi
3:00 AM72 °FPassing clouds.2 mph100%29.89 "Hg5 mi
2:30 AM72 °FPassing clouds.2 mph100%29.89 "Hg5 mi
2:00 AM72 °FPassing clouds.1 mph100%29.89 "Hg5 mi
1:30 AM73 °FPassing clouds.No wind100%29.92 "Hg5 mi
1:00 AM73 °FPassing clouds.No wind100%29.92 "Hg5 mi
12:30 AM73 °FPassing clouds.No wind100%29.92 "Hg5 mi
12:00 AM75 °FPassing clouds.2 mph100%29.92 "Hg5 mi
11:30 PM
Thu, Jul 2
75 °FPassing clouds.3 mph100%29.92 "Hg5 mi
11:00 PM75 °FPassing clouds.5 mph100%29.92 "Hg5 mi
10:30 PM77 °FPassing clouds.5 mph94%29.92 "Hg5 mi
10:00 PM77 °FPassing clouds.6 mph94%29.92 "Hg5 mi
9:30 PM75 °FPassing clouds.3 mph100%29.92 "Hg5 mi
9:00 PM77 °FPassing clouds.3 mph100%29.92 "Hg5 mi
8:30 PM77 °FPassing clouds.5 mph100%29.92 "Hg5 mi
8:00 PM77 °FPassing clouds.5 mph100%29.92 "Hg5 mi
7:30 PM79 °FPassing clouds.5 mph94%29.89 "Hg5 mi
7:00 PM79 °FPassing clouds.3 mph94%29.86 "Hg6 mi
6:30 PM81 °FPassing clouds.5 mph84%29.86 "Hg6 mi
6:00 PM84 °FPassing clouds.5 mph70%29.86 "Hg6 mi
5:30 PM86 °FPassing clouds.5 mph66%29.86 "Hg6 mi
5:00 PM86 °FPassing clouds.6 mph66%29.86 "Hg6 mi
4:30 PM86 °FPassing clouds.7 mph66%29.83 "HgN/A
4:00 PM88 °FPassing clouds.9 mph59%29.86 "HgN/A
3:30 PM88 °FPassing clouds.10 mph55%29.86 "HgN/A
3:00 PM90 °FPassing clouds.10 mph55%29.86 "HgN/A
2:30 PM90 °FPassing clouds.12 mph55%29.86 "HgN/A
2:00 PM90 °FPassing clouds.13 mph59%29.86 "HgN/A
1:30 PM91 °FPassing clouds.8 mph52%29.86 "HgN/A
1:00 PM93 °FPassing clouds.2 mph47%29.89 "HgN/A
12:30 PM91 °FPassing clouds.3 mph49%29.89 "HgN/A
12:00 PM90 °FPassing clouds.3 mph52%29.92 "HgN/A
11:30 AM90 °FPassing clouds.6 mph52%29.95 "HgN/A
10:30 AM88 °FPassing clouds.6 mph59%29.95 "HgN/A
10:00 AM86 °FPassing clouds.5 mph66%29.98 "HgN/A
9:30 AM84 °FPassing clouds.5 mph70%29.98 "HgN/A
9:00 AM84 °FPassing clouds.6 mph70%29.98 "HgN/A
8:30 AM81 °FPassing clouds.6 mph79%29.98 "Hg6 mi
8:00 AM79 °FPassing clouds.3 mph84%29.98 "Hg6 mi
7:30 AM77 °FPassing clouds.2 mph89%29.98 "Hg6 mi
7:00 AM73 °FPassing clouds.2 mph100%29.98 "Hg5 mi
Weather by CustomWeather, © 2015

See weather overviewHow to use our weather pages